SCP
0 0 0 0 0 0 0 0 0 0 0 0 0 0 0 0 0 0 0 0 0 0 0 0 0 0 0 0 0 0 0 0 0 0 0 0 0 0 0 0 0 0 0
0 0 0 0 0 0 0 0 0 0 0 0 0 0 0 0 0 0 0 0 0 0 0 0 0 0 0 0 0 0 0 0 0 0 0 0 0 0 0 0 0 0 0
0 0 0 -0 0 0 -0 0 0 0 0 0 0 0 0 0 0 0 0 0 0 0 0 0 0 0 0 0 0 0 0 0 0 0 0 0 0 0 0 0 0 0 0
0 0 0 0 0 0 0 0 0 0 0 0 0 0 0 0 0 0 0 0 0 0 0 0 0 0 0 0 0 0 0 0 0 0 0 0 0 0 0 0 0 0 0
0 0 0 0 0 0 0 0 0 0 0 0 0 0 0 0 0 0 0 0 0 0 0 0 0 0 0 0 0 0 0 0 0 0 0 0 0 0 0 0 0 0 0
0 0 0 0 0 0 0 0 0 0 0 0 0 0 0 0 0 0 0 0 0 0 0 0 0 0 0 0 0 0 0 0 0 0 0 0 0 0 0 0 0 0 0
-0 -0 -0 0 0 0 0 0 0 0 0 0 0 0 0 0 0 0 0 0 0 0 0 0 0 0 0 0 0 0 0 0 0 0 0 0 0 0 0 0 0 0 0
-0 -0 -0 -0 -0 -0 -0 0 0 0 0 0 0 0 0 0 0 0 0 0 0 0 0 0 0 0 0 0 0 0 0 0 0 0 0 0 0 0 0 0 0 0 0
-0 -0 -0 -0 -0 -0 -0 -0 -0 0 0 0 0 0 0 0 0 0 0 0 0 0 0 0 0 0 0 0 0 0 0 0 0 0 0 0 0 0 0 0 0 0 0
0 0 0 0 0 0 0 0 -0 -0 0 0 0 0 0 0 0 0 0 0 0 0 0 0 0 0 0 0 0 0 0 0 0 0 0 0 0 0 0 0 0 0 0
0 0 0 0 0 0 0 0 0 0 0 0 0 0 0 0 0 0 0 0 0 0 0 0 0 0 0 0 0 0 0 0 0 0 0 0 0 0 0 0 0 0 0
0 0 0 0 0 0 0 0 0 0 0 0 0 0 0 0 0 0 0 0 0 0 0 0 0 0 0 0 0 0 0 0 0 0 0 0 0 0 0 0 0 0 0
0 0 0 0 0 0 0 0 0 0 0 0 0 0 0 0 0 0 0 0 0 0 0 0 0 0 0 0 0 0 0 0 0 0 0 0 0 0 0 0 0 0 0
0 0 0 0 0 0 0 0 0 0 0 0 0 0 0 0 0 0 0 0 0 0 0 0 0 0 0 0 0 0 0 0 0 0 0 0 0 0 0 0 0 0 0
0 0 0 0 0 0 0 0 0 0 0 0 0 0 0 0 0 0 0 0 0 0 0 0 0 0 0 0 0 0 0 0 0 0 0 0 0 0 0 0 0 0 0
0 0 0 0 0 0 0 0 0 0 0 0 0 0 0 0 0 0 0 0 0 0 0 0 0 0 0 0 0 0 0 0 0 0 0 0 0 0 0 0 0 0 0
0 0 0 0 0 0 0 0 0 0 0 0 0 0 0 0 0 0 0 0 0 0 0 0 0 0 0 0 0 0 0 0 0 0 0 0 0 0 0 0 0 0 0
0 0 0 0 0 0 0 0 0 0 0 0 0 0 0 0 0 0 0 0 0 0 0 0 0 0 0 0 0 0 0 0 0 0 0 0 0 0 0 0 0 0 0
0 0 0 0 0 0 0 0 0 0 0 0 0 0 0 0 0 0 0 0 0 0 0 0 0 0 0 0 0 0 0 0 0 0 0 0 0 0 0 0 0 0 0
0 0 0 0 0 0 0 0 0 0 0 0 0 0 0 0 0 0 0 0 0 0 0 0 0 0 0 0 0 0 0 0 0 0 0 0 0 0 0 0 0 0 0
0 0 0 0 0 0 0 0 0 0 0 0 0 0 0 0 0 0 0 0 0 0 0 0 0 0 0 0 0 0 0 0 0 0 0 0 0 0 0 0 0 0 0
0 0 0 0 0 0 0 0 0 0 0 0 0 0 0 0 0 0 0 0 0 0 0 0 0 0 0 0 0 0 0 0 0 0 0 0 0 0 0 0 0 0 0
0 0 0 0 0 0 0 0 0 0 0 0 0 0 0 0 0 0 0 0 0 0 0 0 0 0 0 0 0 0 0 0 0 0 0 0 0 0 0 0 0 0 0
0 0 0 0 0 0 0 0 0 0 0 0 0 0 0 0 0 0 0 0 0 0 0 0 0 0 0 0 0 0 0 0 0 0 0 0 0 0 0 0 0 0 0
0 0 0 0 0 0 0 0 0 0 0 0 0 0 0 0 0 0 0 0 0 0 0 0 0 0 0 0 0 0 0 0 0 0 0 0 0 0 0 0 0 0 0
0 0 0 0 0 0 0 0 0 0 0 0 0 0 0 0 0 0 0 0 0 0 0 0 0 0 0 0 0 0 0 0 0 0 0 0 0 0 0 0 -0 -0 -0
Wind_Speed_500mb
35 36 37 37 37 38 38 39 42 47 49 51 53 56 59 61 63 67 69 70 73 74 77 79 73 77 70 71 72 67 68 67 71 69 63 51 48 43 41 42 44 47 49
39 33 34 36 36 39 41 41 42 45 46 48 49 51 52 55 57 62 64 67 71 75 76 73 78 72 74 78 68 70 69 68 68 70 66 60 57 52 52 53 52 53 56
53 45 40 39 40 46 50 50 48 47 47 47 47 49 50 52 54 56 61 66 68 67 70 74 74 73 76 72 70 70 69 67 67 70 70 66 63 60 60 60 60 61 61
52 48 45 43 45 50 54 55 58 58 56 52 51 51 51 53 54 56 60 64 64 64 64 67 65 74 70 66 70 68 67 67 68 69 69 68 64 64 64 67 72 71 75
50 50 49 49 52 55 56 58 64 65 62 60 59 54 55 56 56 54 57 61 64 65 68 70 70 63 64 67 66 65 66 68 68 68 68 66 66 64 63 67 74 80 82
56 57 56 56 56 59 62 64 70 71 67 63 58 59 60 58 57 57 57 60 62 65 63 62 61 64 65 65 65 63 62 65 67 66 68 67 66 62 63 66 70 77 88
59 55 56 59 60 60 61 62 63 68 68 65 64 62 60 61 62 60 57 55 56 56 56 56 58 61 61 60 61 61 63 65 67 66 68 66 64 61 63 64 68 72 78
65 64 62 59 57 54 54 56 57 58 60 63 60 56 53 54 59 60 56 54 54 53 53 52 54 57 57 59 59 57 57 57 57 59 61 59 57 57 58 63 67 75 79
60 62 61 60 59 57 55 54 54 55 52 51 50 46 44 43 51 55 50 46 46 47 47 48 50 51 55 59 54 53 52 51 51 52 53 54 54 54 55 59 63 65 71
59 57 54 52 52 51 50 48 49 49 46 42 37 33 32 34 41 43 37 33 37 41 43 43 48 49 51 52 45 44 43 45 45 47 50 53 56 57 53 56 54 52 48
47 45 46 47 44 43 43 43 38 37 36 32 28 25 25 28 33 32 25 22 24 27 30 31 35 40 40 35 31 35 40 46 49 54 57 52 50 47 44 40 40 44 49
42 39 37 38 38 37 35 32 29 26 27 28 24 22 23 25 28 31 24 16 17 20 22 25 27 31 35 40 43 42 41 40 40 37 35 34 35 35 35 36 36 37 41
32 32 30 29 28 27 28 28 26 23 23 20 20 21 22 24 27 27 28 27 22 20 21 24 27 28 28 28 26 25 25 25 27 29 32 35 38 40 41 43 43 44 48
25 23 23 23 23 24 24 24 23 21 19 16 15 15 15 18 22 23 19 14 13 11 13 14 15 13 14 17 24 29 32 34 34 34 34 37 40 42 44 47 53 54 62
20 22 23 25 25 24 25 26 25 24 23 22 19 17 17 16 19 20 21 23 23 22 20 18 17 19 21 23 24 27 30 30 31 33 35 39 41 46 48 51 54 58 61
20 23 25 27 27 27 24 22 22 23 22 20 18 19 18 16 12 15 28 30 27 25 24 22 20 19 20 24 26 29 30 31 34 36 38 44 47 49 54 55 58 61 66
22 22 22 22 23 23 23 23 22 22 23 23 23 22 19 16 22 25 28 26 26 23 20 20 21 21 23 24 30 34 36 37 40 42 43 45 50 55 57 60 61 64 70
22 21 21 21 23 24 24 25 25 24 22 21 23 24 22 21 26 27 25 23 22 22 23 23 25 26 26 30 32 38 41 42 43 46 48 50 53 58 63 65 66 68 72
24 24 23 23 24 25 26 26 25 25 24 22 21 22 23 23 26 27 26 24 24 24 25 25 28 30 32 34 37 41 43 44 46 49 51 54 57 61 68 70 71 72 75
30 29 28 27 26 26 26 27 27 27 27 26 27 26 27 28 24 22 24 25 27 29 32 33 33 35 36 40 43 46 49 49 50 52 54 58 61 66 72 75 75 77 79
34 33 32 30 29 28 28 29 29 29 29 28 27 27 29 31 28 25 24 26 30 32 35 38 39 41 42 44 47 50 52 54 54 55 58 61 67 74 77 81 79 79 85
36 34 33 31 30 29 29 29 30 29 29 29 27 27 31 31 32 33 33 34 36 38 42 46 47 47 47 50 52 55 58 60 59 59 63 66 73 79 82 82 80 86 88
38 36 34 32 31 31 29 29 29 30 30 31 33 34 32 34 37 38 40 41 42 43 45 47 50 51 49 50 50 52 57 59 59 61 66 70 77 82 81 83 88 92 89
39 38 36 35 34 34 33 33 32 33 36 37 37 38 40 41 42 42 43 45 47 48 48 50 51 52 54 54 54 52 55 57 59 64 65 74 81 81 81 88 90 87 86
41 40 40 39 38 37 38 38 37 37 38 39 40 42 43 45 47 47 48 49 51 52 52 52 52 53 54 56 55 54 56 57 60 62 66 74 81 81 87 89 76 90 89
39 39 39 39 40 42 44 42 42 43 43 42 43 44 46 47 48 50 51 52 54 54 55 54 53 52 54 55 54 56 58 57 60 61 66 75 82 86 82 80 97 86 83
Wind_Direction_500mb
350 345 339 333 335 336 326 317 306 294 285 280 281 279 276 274 273 273 272 269 267 265 267 268 262 258 256 254 245 252 248 244 245 254 258 258 262 265 269 275 286 293 300
322 320 321 318 322 324 320 316 310 305 300 293 285 279 276 275 274 273 272 271 269 267 266 263 261 261 256 252 252 249 249 247 247 253 259 259 261 264 271 277 284 290 297
311 308 308 304 304 311 313 313 308 301 296 293 290 286 282 278 274 271 271 272 271 269 267 264 262 257 254 250 251 248 247 246 246 249 254 261 266 271 276 282 287 290 296
316 306 296 290 291 301 306 309 310 306 299 291 287 286 284 281 277 274 272 271 271 267 265 263 259 257 249 253 250 248 246 243 244 248 255 261 267 274 282 290 291 295 298
321 319 317 310 304 302 303 304 305 306 302 295 290 285 283 282 279 275 272 270 270 269 265 259 255 254 254 249 247 244 242 242 245 250 256 262 268 275 283 289 295 301 303
321 317 312 305 301 299 297 298 298 299 296 293 293 292 287 282 280 277 274 271 268 265 262 260 260 254 250 246 243 240 241 243 247 252 259 265 272 279 284 291 299 306 308
323 318 312 306 303 302 299 296 295 294 295 294 293 290 287 284 280 277 274 270 266 264 262 258 255 250 245 243 242 243 244 248 252 256 261 268 275 282 288 294 298 299 297
320 320 319 316 311 309 309 306 302 300 302 301 297 292 287 284 280 277 275 271 266 263 261 257 252 250 249 247 247 248 250 252 256 259 264 270 276 284 290 293 295 295 295
310 312 315 317 317 316 315 315 314 312 308 304 300 296 288 281 278 275 273 268 263 258 256 254 252 251 252 254 253 251 252 254 256 259 265 273 283 291 292 292 297 291 294
311 312 313 316 318 319 322 323 323 320 318 313 308 299 286 278 275 277 281 273 264 258 254 252 254 253 256 261 264 266 270 273 276 279 283 287 292 297 296 286 284 286 293
313 314 316 318 321 322 325 325 330 331 322 315 311 301 289 280 280 284 290 282 272 263 261 262 266 271 275 280 285 288 290 291 294 296 297 299 294 282 279 282 283 286 287
311 314 319 324 325 328 330 331 333 337 342 332 320 307 301 298 298 303 316 323 304 292 287 281 279 279 280 280 282 283 289 296 297 291 285 285 286 287 288 288 288 287 285
313 318 323 328 333 336 336 332 330 329 329 333 333 330 327 324 322 323 326 323 318 307 295 291 297 302 303 304 297 290 289 294 299 302 304 305 304 303 304 304 301 299 296
319 325 332 333 333 336 343 344 340 339 331 327 326 328 328 329 338 341 338 334 326 318 290 278 283 289 294 303 304 305 307 310 312 310 308 308 308 307 310 310 309 310 307
336 336 336 333 333 336 338 341 344 343 346 345 341 337 333 332 338 354 328 326 325 328 319 309 306 310 311 309 307 306 306 307 307 308 307 307 310 313 314 314 315 313 312
351 355 350 343 340 340 339 335 332 332 336 337 345 337 342 338 339 310 320 327 328 335 331 325 323 323 320 317 313 311 314 314 313 314 316 317 318 320 318 319 317 315 313
348 345 333 327 329 327 323 318 315 314 316 318 317 317 320 320 306 310 315 320 327 329 320 315 316 320 321 322 320 320 319 320 320 317 319 320 320 320 320 320 319 317 315
321 320 321 322 323 323 322 322 323 322 320 316 313 312 310 303 301 310 315 319 324 323 318 322 324 325 323 323 322 318 316 317 315 314 317 322 323 322 320 319 319 318 317
313 311 310 310 310 310 310 312 313 313 314 314 311 309 308 310 315 316 318 319 318 318 318 319 318 319 322 321 319 315 315 317 316 316 318 321 322 322 319 319 317 317 318
306 305 304 304 302 301 302 303 306 307 309 310 309 310 307 311 313 309 309 311 315 316 315 315 316 317 318 316 315 313 313 315 318 317 317 320 323 321 319 318 317 316 315
300 299 299 299 298 298 297 298 299 301 302 305 306 307 308 312 315 311 308 307 307 308 309 311 313 315 315 313 310 308 311 315 318 316 314 317 321 320 320 318 313 311 311
297 296 294 292 292 292 292 292 293 295 297 299 299 300 302 303 304 306 307 307 306 307 309 310 311 312 313 311 311 311 312 313 316 315 313 316 318 318 317 312 309 310 309
295 294 293 292 294 295 297 296 295 295 295 296 298 298 296 295 296 298 300 301 302 303 304 305 306 308 308 306 305 306 308 312 314 313 313 314 316 316 313 309 311 310 307
292 291 290 291 293 293 293 294 294 294 295 296 297 296 296 295 296 296 297 297 298 300 303 304 306 307 307 306 306 307 309 311 312 312 311 310 312 313 312 312 312 307 302
289 288 289 289 289 287 288 291 293 295 296 296 296 295 295 296 298 299 299 299 300 301 302 303 305 306 306 306 307 307 308 309 309 310 310 311 313 314 315 312 300 304 303
291 287 286 285 286 287 290 291 292 295 296 296 297 297 298 298 299 300 300 301 300 301 303 304 306 307 307 308 308 308 309 310 313 314 316 315 314 312 309 300 305 305 298
Wind_Speed_850mb
35 36 37 37 37 38 38 39 42 47 49 51 53 56 59 61 63 67 69 70 73 74 77 79 73 77 70 71 72 67 68 67 71 69 63 51 48 43 41 42 44 47 49
39 33 34 36 36 39 41 41 42 45 46 48 49 51 52 55 57 62 64 67 71 75 76 73 78 72 74 78 68 70 69 68 68 70 66 60 57 52 52 53 52 53 56
53 45 40 39 40 46 50 50 48 47 47 47 47 49 50 52 54 56 61 66 68 67 70 74 74 73 76 72 70 70 69 67 67 70 70 66 63 60 60 60 60 61 61
52 48 45 43 45 50 54 55 58 58 56 52 51 51 51 53 54 56 60 64 64 64 64 67 65 74 70 66 70 68 67 67 68 69 69 68 64 64 64 67 72 71 75
50 50 49 49 52 55 56 58 64 65 62 60 59 54 55 56 56 54 57 61 64 65 68 70 70 63 64 67 66 65 66 68 68 68 68 66 66 64 63 67 74 80 82
56 57 56 56 56 59 62 64 70 71 67 63 58 59 60 58 57 57 57 60 62 65 63 62 61 64 65 65 65 63 62 65 67 66 68 67 66 62 63 66 70 77 88
59 55 56 59 60 60 61 62 63 68 68 65 64 62 60 61 62 60 57 55 56 56 56 56 58 61 61 60 61 61 63 65 67 66 68 66 64 61 63 64 68 72 78
65 64 62 59 57 54 54 56 57 58 60 63 60 56 53 54 59 60 56 54 54 53 53 52 54 57 57 59 59 57 57 57 57 59 61 59 57 57 58 63 67 75 79
60 62 61 60 59 57 55 54 54 55 52 51 50 46 44 43 51 55 50 46 46 47 47 48 50 51 55 59 54 53 52 51 51 52 53 54 54 54 55 59 63 65 71
59 57 54 52 52 51 50 48 49 49 46 42 37 33 32 34 41 43 37 33 37 41 43 43 48 49 51 52 45 44 43 45 45 47 50 53 56 57 53 56 54 52 48
47 45 46 47 44 43 43 43 38 37 36 32 28 25 25 28 33 32 25 22 24 27 30 31 35 40 40 35 31 35 40 46 49 54 57 52 50 47 44 40 40 44 49
42 39 37 38 38 37 35 32 29 26 27 28 24 22 23 25 28 31 24 16 17 20 22 25 27 31 35 40 43 42 41 40 40 37 35 34 35 35 35 36 36 37 41
32 32 30 29 28 27 28 28 26 23 23 20 20 21 22 24 27 27 28 27 22 20 21 24 27 28 28 28 26 25 25 25 27 29 32 35 38 40 41 43 43 44 48
25 23 23 23 23 24 24 24 23 21 19 16 15 15 15 18 22 23 19 14 13 11 13 14 15 13 14 17 24 29 32 34 34 34 34 37 40 42 44 47 53 54 62
20 22 23 25 25 24 25 26 25 24 23 22 19 17 17 16 19 20 21 23 23 22 20 18 17 19 21 23 24 27 30 30 31 33 35 39 41 46 48 51 54 58 61
20 23 25 27 27 27 24 22 22 23 22 20 18 19 18 16 12 15 28 30 27 25 24 22 20 19 20 24 26 29 30 31 34 36 38 44 47 49 54 55 58 61 66
22 22 22 22 23 23 23 23 22 22 23 23 23 22 19 16 22 25 28 26 26 23 20 20 21 21 23 24 30 34 36 37 40 42 43 45 50 55 57 60 61 64 70
22 21 21 21 23 24 24 25 25 24 22 21 23 24 22 21 26 27 25 23 22 22 23 23 25 26 26 30 32 38 41 42 43 46 48 50 53 58 63 65 66 68 72
24 24 23 23 24 25 26 26 25 25 24 22 21 22 23 23 26 27 26 24 24 24 25 25 28 30 32 34 37 41 43 44 46 49 51 54 57 61 68 70 71 72 75
30 29 28 27 26 26 26 27 27 27 27 26 27 26 27 28 24 22 24 25 27 29 32 33 33 35 36 40 43 46 49 49 50 52 54 58 61 66 72 75 75 77 79
34 33 32 30 29 28 28 29 29 29 29 28 27 27 29 31 28 25 24 26 30 32 35 38 39 41 42 44 47 50 52 54 54 55 58 61 67 74 77 81 79 79 85
36 34 33 31 30 29 29 29 30 29 29 29 27 27 31 31 32 33 33 34 36 38 42 46 47 47 47 50 52 55 58 60 59 59 63 66 73 79 82 82 80 86 88
38 36 34 32 31 31 29 29 29 30 30 31 33 34 32 34 37 38 40 41 42 43 45 47 50 51 49 50 50 52 57 59 59 61 66 70 77 82 81 83 88 92 89
39 38 36 35 34 34 33 33 32 33 36 37 37 38 40 41 42 42 43 45 47 48 48 50 51 52 54 54 54 52 55 57 59 64 65 74 81 81 81 88 90 87 86
41 40 40 39 38 37 38 38 37 37 38 39 40 42 43 45 47 47 48 49 51 52 52 52 52 53 54 56 55 54 56 57 60 62 66 74 81 81 87 89 76 90 89
39 39 39 39 40 42 44 42 42 43 43 42 43 44 46 47 48 50 51 52 54 54 55 54 53 52 54 55 54 56 58 57 60 61 66 75 82 86 82 80 97 86 83
Wind_Direction_850mb
350 345 339 333 335 336 326 317 306 294 285 280 281 279 276 274 273 273 272 269 267 265 267 268 262 258 256 254 245 252 248 244 245 254 258 258 262 265 269 275 286 293 300
322 320 321 318 322 324 320 316 310 305 300 293 285 279 276 275 274 273 272 271 269 267 266 263 261 261 256 252 252 249 249 247 247 253 259 259 261 264 271 277 284 290 297
311 308 308 304 304 311 313 313 308 301 296 293 290 286 282 278 274 271 271 272 271 269 267 264 262 257 254 250 251 248 247 246 246 249 254 261 266 271 276 282 287 290 296
316 306 296 290 291 301 306 309 310 306 299 291 287 286 284 281 277 274 272 271 271 267 265 263 259 257 249 253 250 248 246 243 244 248 255 261 267 274 282 290 291 295 298
321 319 317 310 304 302 303 304 305 306 302 295 290 285 283 282 279 275 272 270 270 269 265 259 255 254 254 249 247 244 242 242 245 250 256 262 268 275 283 289 295 301 303
321 317 312 305 301 299 297 298 298 299 296 293 293 292 287 282 280 277 274 271 268 265 262 260 260 254 250 246 243 240 241 243 247 252 259 265 272 279 284 291 299 306 308
323 318 312 306 303 302 299 296 295 294 295 294 293 290 287 284 280 277 274 270 266 264 262 258 255 250 245 243 242 243 244 248 252 256 261 268 275 282 288 294 298 299 297
320 320 319 316 311 309 309 306 302 300 302 301 297 292 287 284 280 277 275 271 266 263 261 257 252 250 249 247 247 248 250 252 256 259 264 270 276 284 290 293 295 295 295
310 312 315 317 317 316 315 315 314 312 308 304 300 296 288 281 278 275 273 268 263 258 256 254 252 251 252 254 253 251 252 254 256 259 265 273 283 291 292 292 297 291 294
311 312 313 316 318 319 322 323 323 320 318 313 308 299 286 278 275 277 281 273 264 258 254 252 254 253 256 261 264 266 270 273 276 279 283 287 292 297 296 286 284 286 293
313 314 316 318 321 322 325 325 330 331 322 315 311 301 289 280 280 284 290 282 272 263 261 262 266 271 275 280 285 288 290 291 294 296 297 299 294 282 279 282 283 286 287
311 314 319 324 325 328 330 331 333 337 342 332 320 307 301 298 298 303 316 323 304 292 287 281 279 279 280 280 282 283 289 296 297 291 285 285 286 287 288 288 288 287 285
313 318 323 328 333 336 336 332 330 329 329 333 333 330 327 324 322 323 326 323 318 307 295 291 297 302 303 304 297 290 289 294 299 302 304 305 304 303 304 304 301 299 296
319 325 332 333 333 336 343 344 340 339 331 327 326 328 328 329 338 341 338 334 326 318 290 278 283 289 294 303 304 305 307 310 312 310 308 308 308 307 310 310 309 310 307
336 336 336 333 333 336 338 341 344 343 346 345 341 337 333 332 338 354 328 326 325 328 319 309 306 310 311 309 307 306 306 307 307 308 307 307 310 313 314 314 315 313 312
351 355 350 343 340 340 339 335 332 332 336 337 345 337 342 338 339 310 320 327 328 335 331 325 323 323 320 317 313 311 314 314 313 314 316 317 318 320 318 319 317 315 313
348 345 333 327 329 327 323 318 315 314 316 318 317 317 320 320 306 310 315 320 327 329 320 315 316 320 321 322 320 320 319 320 320 317 319 320 320 320 320 320 319 317 315
321 320 321 322 323 323 322 322 323 322 320 316 313 312 310 303 301 310 315 319 324 323 318 322 324 325 323 323 322 318 316 317 315 314 317 322 323 322 320 319 319 318 317
313 311 310 310 310 310 310 312 313 313 314 314 311 309 308 310 315 316 318 319 318 318 318 319 318 319 322 321 319 315 315 317 316 316 318 321 322 322 319 319 317 317 318
306 305 304 304 302 301 302 303 306 307 309 310 309 310 307 311 313 309 309 311 315 316 315 315 316 317 318 316 315 313 313 315 318 317 317 320 323 321 319 318 317 316 315
300 299 299 299 298 298 297 298 299 301 302 305 306 307 308 312 315 311 308 307 307 308 309 311 313 315 315 313 310 308 311 315 318 316 314 317 321 320 320 318 313 311 311
297 296 294 292 292 292 292 292 293 295 297 299 299 300 302 303 304 306 307 307 306 307 309 310 311 312 313 311 311 311 312 313 316 315 313 316 318 318 317 312 309 310 309
295 294 293 292 294 295 297 296 295 295 295 296 298 298 296 295 296 298 300 301 302 303 304 305 306 308 308 306 305 306 308 312 314 313 313 314 316 316 313 309 311 310 307
292 291 290 291 293 293 293 294 294 294 295 296 297 296 296 295 296 296 297 297 298 300 303 304 306 307 307 306 306 307 309 311 312 312 311 310 312 313 312 312 312 307 302
289 288 289 289 289 287 288 291 293 295 296 296 296 295 295 296 298 299 299 299 300 301 302 303 305 306 306 306 307 307 308 309 309 310 310 311 313 314 315 312 300 304 303
291 287 286 285 286 287 290 291 292 295 296 296 297 297 298 298 299 300 300 301 300 301 303 304 306 307 307 308 308 308 309 310 313 314 316 315 314 312 309 300 305 305 298